Tracking 23757 objects as of 25-Oct-2021
HD Live streaming from Space Station
objects crossing your sky now

FREGAT DEB

Track FREGAT DEB now!
10-day predictions


NORAD ID: 45955
Int'l Code: 2011-037FL
Perigee: 705.5 km
Apogee: 5,400.0 km
Inclination: 51.5 °
Period: 151.7 minutes
Semi major axis: 9423 km
RCS: Unknown
Launch date: July 18, 2011
Source: Commonwealth of Independent States (former USSR) (CIS)
Launch site: TYURATAM MISSILE AND SPACE COMPLEX (TTMTR)

Note: This is SATELLITE DEBRIS
aabbcc
Your satellite tracking list
Your tracking list is empty




NASA's NSSDC Master Catalog

Two Line Element Set (TLE):
1 45955U 11037FL  21297.86658423 -.00007187  00000-0 -16029-1 0  9997
2 45955  51.5313 237.5522 2490754 310.0390  30.6578  9.49002987 43230
Source of the keplerian elements: AFSPC